DateTimeUTC,F1_A11,F1_S11,BsB_S11,BsG_S11,BsR_S11,BbsB_S11,BbsG_S11,BbsR_S11,BaB_A11,BaG_A11,BaR_A11,T_S11,U_S11,P_S11,T1_A11
2020-12-17T00:00:00Z,00000380,21000600,,,,,,,,,,23.2,00.0,0648.0,30.9
2020-12-17T00:01:00Z,00000380,21000600,,,,,,,,,,23.2,00.0,0648.0,30.9
2020-12-17T00:02:00Z,00000380,21000600,,,,,,,,,,23.2,00.0,0648.0,30.9
2020-12-17T00:03:00Z,00000380,61000600,,,,,,,,,,23.2,00.0,0648.0,30.9
2020-12-17T00:04:00Z,00000380,41000600,0001.99,0000.98,0000.90,-000.09,0000.09,0000.56,0000.20,0000.12,-000.00,22.9,00.0,0648.9,30.9
2020-12-17T00:05:00Z,00000380,01000600,0001.86,0000.78,0000.83,0000.26,-000.16,0000.41,0000.11,0000.25,0000.22,22.9,00.0,0649.0,30.8
2020-12-17T00:06:00Z,00000380,01000600,0001.44,0001.07,0000.62,0000.40,0000.24,-000.43,0000.17,0000.06,0000.15,22.8,00.0,0649.0,30.9
2020-12-17T00:07:00Z,00000380,01000600,0001.39,0000.66,0000.48,0000.37,0000.09,0000.36,0000.20,0000.08,0000.06,22.8,00.0,0649.0,30.9
2020-12-17T00:08:00Z,00000380,01000600,0000.68,0000.57,0001.03,-000.57,0000.57,0000.22,-000.05,0000.14,0000.01,22.9,00.0,0649.0,30.9
2020-12-17T00:09:00Z,00000380,01000600,0001.30,0001.35,0001.03,0000.65,0000.42,-000.11,0000.11,0000.12,0000.09,22.9,00.0,0649.0,30.9
2020-12-17T00:10:00Z,00000380,01000600,0002.53,0000.92,0000.08,-000.16,0000.49,0000.65,0000.08,-000.04,-000.04,22.9,00.0,0649.0,30.9
2020-12-17T00:11:00Z,00000380,01000600,0001.40,0000.93,0000.52,0000.58,0000.09,0000.06,-000.15,0000.10,-000.03,22.9,00.0,0648.9,30.9
2020-12-17T00:12:00Z,00000380,01000600,0001.01,0001.07,0000.46,-000.01,0000.46,0000.05,0000.23,0000.05,0000.19,22.8,00.0,0648.9,30.9
2020-12-17T00:13:00Z,00000380,01000600,0001.37,0000.86,0000.06,-000.54,0000.08,0000.14,0000.11,-000.07,0000.07,22.8,00.0,0649.0,30.9
2020-12-17T00:14:00Z,00000380,01000600,0002.13,0000.45,0000.88,0000.26,0000.07,0000.14,-000.04,0000.15,0000.01,22.8,00.0,0648.9,30.9
2020-12-17T00:15:00Z,00000380,01000600,0001.94,0000.66,-000.12,0000.77,0000.24,-000.01,0000.07,-000.10,0000.06,22.8,00.0,0648.9,30.9
2020-12-17T00:16:00Z,00000380,01000600,0001.33,0000.56,0000.60,0000.05,0000.10,-000.17,0000.12,0000.22,0000.15,22.7,00.0,0648.9,30.9
2020-12-17T00:17:00Z,00000380,01000600,0002.21,0001.20,0000.30,0000.15,0000.39,0000.07,0000.01,0000.10,0000.02,22.7,00.0,0649.0,30.9
2020-12-17T00:18:00Z,00000380,01000600,0002.41,0001.13,0000.26,0000.96,0000.61,-000.13,0000.24,0000.01,0000.11,22.7,00.0,0649.0,30.9
2020-12-17T00:19:00Z,00000380,01000600,0002.67,0001.14,0000.25,0001.44,0000.14,-000.19,0000.14,0000.29,0000.16,22.7,00.0,0648.9,30.8
2020-12-17T00:20:00Z,00000380,01000600,0001.68,0001.13,0000.58,0001.06,-000.09,-000.03,0000.09,0000.31,0000.07,22.7,00.0,0648.9,30.8
2020-12-17T00:21:00Z,00000380,01000600,0001.32,0001.08,0000.70,0000.73,0000.36,0000.27,0000.06,-000.00,0000.11,22.7,00.0,0648.9,30.8
2020-12-17T00:22:00Z,00000380,01000600,0002.28,0000.77,0000.56,0000.25,0001.04,-000.43,0000.19,0000.22,0000.05,22.7,00.0,0649.0,30.8
2020-12-17T00:23:00Z,00000380,01000600,0002.17,0000.94,0000.86,0000.50,0000.23,0000.35,0000.08,-000.00,0000.16,22.7,00.0,0649.0,30.9
2020-12-17T00:24:00Z,00000380,01000600,0001.56,0000.84,0000.16,0000.24,-000.01,0000.33,0000.16,0000.10,-000.08,22.7,00.0,0649.0,30.9
2020-12-17T00:25:00Z,00000380,01000600,0001.37,0001.15,0000.67,0000.18,0000.08,-000.19,0000.06,-000.08,0000.23,22.8,00.0,0649.0,30.9
2020-12-17T00:26:00Z,00000380,01000600,0000.84,0000.44,0000.28,-000.31,0000.05,-000.18,-000.08,0000.24,-000.02,22.8,00.0,0649.0,30.9
2020-12-17T00:27:00Z,00000380,01000600,0001.08,0000.70,0000.65,-000.02,0000.29,-000.00,0000.14,0000.02,0000.07,22.9,00.0,0649.0,30.9
2020-12-17T00:28:00Z,00000380,01000600,0000.03,0000.95,0000.09,-000.21,0000.14,-000.09,0000.09,-000.05,0000.05,22.8,00.0,0649.0,30.9
2020-12-17T00:29:00Z,00000380,01000600,0001.82,0001.25,0000.20,0000.20,0000.22,0000.12,-000.06,0000.01,0000.02,22.9,00.0,0649.0,30.9
2020-12-17T00:30:00Z,00000380,01000600,0002.06,0001.21,0000.48,0000.16,0000.34,-000.55,-000.03,0000.09,-000.02,22.9,00.0,0649.0,30.9
2020-12-17T00:31:00Z,00000380,01000600,0000.96,0000.59,0000.72,-000.04,0000.25,-000.05,0000.08,-000.20,0000.05,22.8,00.0,0649.0,30.9
2020-12-17T00:32:00Z,00000380,01000600,0001.75,0000.05,0000.75,-000.03,-000.07,0000.26,0000.15,0000.26,-000.04,22.8,00.0,0649.0,30.9
2020-12-17T00:33:00Z,00000380,01000600,0001.18,0001.07,0000.85,-001.18,0000.46,0000.14,0000.07,0000.06,-000.01,22.8,00.0,0649.0,30.9
2020-12-17T00:34:00Z,00000380,01000600,0000.99,0000.02,0000.39,-000.03,0000.20,-000.09,0000.18,0000.01,0000.29,22.8,00.0,0649.0,30.9
2020-12-17T00:35:00Z,00000380,01000600,0001.03,0000.81,0000.07,-000.51,0000.25,0000.26,0000.06,0000.19,-000.08,22.8,00.0,0649.0,30.9
2020-12-17T00:36:00Z,00000380,01000600,0001.49,0000.94,0000.42,0000.14,0000.03,0000.56,0000.19,0000.01,0000.16,22.8,00.0,0649.0,30.9
2020-12-17T00:37:00Z,00000380,01000600,0001.34,0000.42,0000.65,0000.25,-000.24,0000.11,0000.07,0000.35,0000.14,22.8,00.0,0649.0,30.9
2020-12-17T00:38:00Z,00000380,01000600,0001.20,0000.75,0000.46,0000.10,0000.23,0000.15,-000.11,-000.01,-000.06,22.8,00.0,0649.0,30.9
2020-12-17T00:39:00Z,00000380,01000600,0001.84,0000.63,0000.40,-000.28,0000.26,0000.03,0000.13,0000.14,0000.20,22.9,00.0,0649.0,30.9
2020-12-17T00:40:00Z,00000380,01000600,0002.17,0000.53,0000.85,0000.36,0000.14,0000.16,0000.18,-000.03,0000.11,22.9,00.0,0649.0,30.9
2020-12-17T00:41:00Z,00000380,01000600,0000.52,0000.51,0000.20,-000.41,0000.46,0000.02,0000.06,0000.11,-000.07,22.9,00.0,0649.1,30.9
2020-12-17T00:42:00Z,00000380,01000600,0001.30,0001.03,0000.26,0000.49,0000.25,-000.33,0000.03,0000.03,0000.04,23.0,00.0,0649.1,30.9
2020-12-17T00:43:00Z,00000380,01000600,0002.48,0000.16,0000.45,-000.22,-000.03,0000.26,-000.20,-000.05,0000.01,22.9,00.0,0649.1,30.9
2020-12-17T00:44:00Z,00000380,01000600,0001.06,0000.33,0000.52,-000.30,0000.14,0000.25,-000.03,-000.01,-000.01,22.9,00.0,0649.1,30.9
2020-12-17T00:45:00Z,00000380,01000600,0001.72,0000.76,0000.21,-000.13,0000.05,0000.47,0000.13,0000.18,-000.03,22.9,00.0,0649.1,30.9
2020-12-17T00:46:00Z,00000380,01000600,0001.43,0000.68,0000.47,0000.62,0000.26,-000.21,0000.04,-000.09,0000.08,22.9,00.0,0649.1,30.9
2020-12-17T00:47:00Z,00000380,01000600,0000.94,0000.41,0000.19,0000.38,0000.31,-000.27,0000.17,0000.06,0000.02,22.9,00.0,0649.1,30.9
2020-12-17T00:48:00Z,00000380,01000600,0000.72,0000.21,0000.28,-000.10,0000.38,0000.44,-000.02,-000.02,-000.02,22.9,00.0,0649.1,30.9
2020-12-17T00:49:00Z,00000380,01000600,0000.47,0000.80,0000.20,0000.48,0000.24,0000.10,0000.25,0000.10,0000.18,22.9,00.0,0649.1,30.9
2020-12-17T00:50:00Z,00000380,01000600,0001.41,0000.80,0000.49,0000.83,0000.82,0000.26,0000.05,0000.22,0000.19,22.9,00.0,0649.1,30.9
2020-12-17T00:51:00Z,00000380,01000600,0001.02,0000.91,0000.63,-000.54,0000.05,0000.02,0000.16,0000.03,0000.00,22.9,00.0,0649.1,30.9
2020-12-17T00:52:00Z,00000380,01000600,0001.41,0001.03,0000.11,0000.44,0000.16,-000.40,0000.02,0000.08,0000.11,22.9,00.0,0649.1,30.9
2020-12-17T00:53:00Z,00000380,01000600,0001.02,0000.61,0000.30,0000.39,0000.26,0000.19,0000.08,0000.19,0000.17,22.9,00.0,0649.2,30.9
2020-12-17T00:54:00Z,00000380,01000600,0001.78,0000.74,0000.55,-000.10,-000.01,0000.34,0000.07,-000.11,0000.01,22.9,00.0,0649.2,30.9
2020-12-17T00:55:00Z,00000380,01000600,0001.10,0000.84,0000.19,0001.07,0000.18,-000.22,0000.08,0000.13,-000.03,23.0,00.0,0649.1,30.9
2020-12-17T00:56:00Z,00000380,01000600,0000.89,0000.45,0000.45,0000.77,0000.08,-000.12,-000.09,-000.07,-000.08,23.0,00.0,0649.2,30.9
2020-12-17T00:57:00Z,00000380,41000600,,,,,,,,,,23.0,00.0,0649.2,30.9
2020-12-17T00:58:00Z,00000380,61000600,,,,,,,,,,23.1,00.0,0648.2,30.9
2020-12-17T00:59:00Z,00000380,21000600,,,,,,,,,,23.2,00.0,0648.2,30.9
2020-12-17T01:00:00Z,00000380,21000600,,,,,,,,,,23.2,00.0,0648.2,30.9
2020-12-17T01:01:00Z,00000380,21000600,,,,,,,,,,23.2,00.0,0648.2,30.9
2020-12-17T01:02:00Z,00000380,21000600,,,,,,,,,,23.2,00.0,0648.2,30.9
2020-12-17T01:03:00Z,00000380,61000600,,,,,,,,,,23.2,00.0,0648.2,30.9
2020-12-17T01:04:00Z,00000380,41000600,0000.12,0000.38,0000.43,0000.10,-000.18,0000.09,0000.05,0000.15,0000.05,23.0,00.0,0649.1,30.9
2020-12-17T01:05:00Z,00000380,01000600,-000.65,0000.88,-000.11,0000.72,-000.03,-000.17,0000.31,0000.14,0000.04,22.9,00.0,0649.2,30.9
2020-12-17T01:06:00Z,00000380,01000600,0000.69,0000.67,0000.80,0000.04,0000.14,0000.21,0000.07,0000.05,0000.10,22.8,00.0,0649.2,30.9
2020-12-17T01:07:00Z,00000380,01000600,0000.14,0000.77,0000.44,0001.06,0000.38,-000.11,0000.12,0000.27,0000.34,22.9,00.0,0649.2,30.9
2020-12-17T01:08:00Z,00000380,01000600,-000.22,0000.72,0000.13,-000.03,0000.17,0000.15,0000.12,0000.17,0000.01,22.9,00.0,0649.2,30.9
2020-12-17T01:09:00Z,00000380,01000600,0000.07,0001.04,-000.41,0000.25,0000.01,-000.01,0000.05,-000.01,-000.00,22.9,00.0,0649.2,30.9
2020-12-17T01:10:00Z,00000380,01000600,-000.67,0000.50,0000.15,0000.34,0000.07,-000.12,0000.02,0000.08,0000.04,23.0,00.0,0649.2,30.9
2020-12-17T01:11:00Z,00000380,01000600,0001.81,0000.37,0000.01,-000.56,-000.45,0000.22,-000.07,-000.11,-000.02,23.0,00.0,0649.2,30.9
2020-12-17T01:12:00Z,00000380,01000600,0000.72,0000.85,0000.40,0000.58,0000.27,0000.02,0000.28,0000.14,0000.10,22.9,00.0,0649.2,30.9
2020-12-17T01:13:00Z,00000380,01000600,0001.54,0000.40,0000.16,0000.71,-000.12,0000.01,-000.16,-000.03,-000.06,22.9,00.0,0649.2,30.9
2020-12-17T01:14:00Z,00000380,01000600,0001.41,0000.79,-000.05,0000.32,-000.11,0000.16,0000.17,0000.07,0000.04,22.9,00.0,0649.1,30.9
2020-12-17T01:15:00Z,00000380,01000600,0000.99,0000.64,0000.10,0000.77,-000.24,0000.06,0000.18,0000.16,0000.08,22.9,00.0,0649.1,30.9
2020-12-17T01:16:00Z,00000380,01000600,0000.59,0000.38,0000.47,0000.49,-000.20,0000.06,0000.01,-000.01,0000.14,22.9,00.0,0649.1,30.9
2020-12-17T01:17:00Z,00000380,01000600,0000.37,0000.50,0000.46,0000.20,-000.25,0000.18,0000.17,0000.24,0000.12,22.9,00.0,0649.0,30.9
2020-12-17T01:18:00Z,00000380,01000600,0001.04,0001.00,-000.16,0001.36,-000.05,-000.18,0000.24,0000.19,0000.19,22.8,00.0,0649.0,30.9
2020-12-17T01:19:00Z,00000380,01000600,-000.67,0000.78,0000.30,0000.79,0000.22,-000.13,0000.14,0000.07,-000.10,22.8,00.0,0649.0,30.9
2020-12-17T01:20:00Z,00000380,01010600,0001.47,0000.56,0000.45,-000.04,-000.07,0000.14,0000.29,0000.30,0000.43,22.8,00.0,0649.0,30.9
2020-12-17T01:21:00Z,00000380,01000600,0000.99,0000.46,-000.29,0000.48,-000.01,0000.23,-000.02,-000.03,-000.22,22.8,00.0,0649.0,30.9
2020-12-17T01:22:00Z,00000380,01000600,0000.14,0000.54,0000.50,0000.43,0000.38,0000.46,0000.24,0000.22,0000.26,22.8,00.0,0649.1,30.9
2020-12-17T01:23:00Z,00000380,01000600,0000.67,0000.76,0000.47,0001.20,0000.40,0000.20,0000.22,0000.19,0000.13,22.8,00.0,0649.1,30.9
2020-12-17T01:24:00Z,00000380,01000600,0000.73,0000.52,0000.30,0000.62,0000.12,-000.24,0000.07,0000.13,0000.03,22.9,00.0,0649.1,30.9
2020-12-17T01:25:00Z,00000380,01000600,0001.15,0000.96,0000.44,0000.24,0000.07,0000.27,-000.04,0000.00,0000.13,22.9,00.0,0649.1,30.9
2020-12-17T01:26:00Z,00000380,01000600,0000.64,0001.09,0000.24,0000.16,0000.04,-000.05,0000.31,0000.18,0000.11,22.9,00.0,0649.1,30.9
2020-12-17T01:27:00Z,00000380,01000600,0000.59,0000.59,0000.14,0000.06,0000.37,-000.02,-000.08,-000.27,-000.10,22.9,00.0,0649.1,30.9
2020-12-17T01:28:00Z,00000380,01000600,0000.63,0000.96,0000.27,-000.08,0000.10,0000.48,0000.02,0000.15,0000.21,22.9,00.0,0649.1,30.9
2020-12-17T01:29:00Z,00000380,01000600,0000.53,0000.72,0000.02,-001.30,-000.05,0000.30,0000.13,0000.24,-000.06,22.9,00.0,0649.1,30.9
2020-12-17T01:30:00Z,00000380,01000600,-000.06,0000.28,0000.21,0000.39,0000.34,0000.19,-000.01,-000.08,-000.09,22.9,00.0,0649.0,30.9
2020-12-17T01:31:00Z,00000380,01000600,-000.08,0000.24,-000.13,0000.55,-000.05,-000.13,0000.15,0000.10,0000.31,22.9,00.0,0649.0,30.9
2020-12-17T01:32:00Z,00000380,01000600,0000.93,0000.30,0000.15,-000.02,-000.17,0000.07,0000.16,0000.26,0000.01,22.9,00.0,0649.0,30.9
2020-12-17T01:33:00Z,00000380,01000600,0001.07,0000.13,0000.18,0000.43,-000.28,0000.22,-000.02,-000.11,0000.06,22.9,00.0,0649.0,30.9
2020-12-17T01:34:00Z,00000380,01000600,0001.45,0000.27,0000.23,0000.69,0000.07,0000.14,0000.25,0000.12,0000.12,22.9,00.0,0649.0,30.9
2020-12-17T01:35:00Z,00000380,01000600,0001.27,0000.40,0000.42,0000.39,0000.11,0000.26,0000.28,0000.28,0000.17,22.8,00.0,0649.0,30.9
2020-12-17T01:36:00Z,00000380,01000600,0000.90,0000.81,0000.15,0000.23,-000.26,-000.23,-000.06,0000.06,0000.01,22.8,00.0,0649.0,30.9
2020-12-17T01:37:00Z,00000380,01000600,-000.19,0000.39,0000.49,-000.70,0000.01,0000.53,0000.19,0000.19,0000.11,22.9,00.0,0649.0,30.9
2020-12-17T01:38:00Z,00000380,01000600,0001.18,0000.63,0000.14,-000.60,0000.25,0000.04,0000.20,0000.10,0000.13,22.9,00.0,0649.0,30.9
2020-12-17T01:39:00Z,00000380,01000600,-000.55,0000.69,0000.03,0000.43,-000.19,-000.15,0000.16,0000.15,0000.06,22.9,00.0,0649.0,30.9
2020-12-17T01:40:00Z,00000380,01000600,0000.53,0000.96,0000.63,-000.11,0000.14,0000.01,0000.03,0000.20,0000.10,22.9,00.0,0649.0,30.9
2020-12-17T01:41:00Z,00000380,01000600,-000.50,0000.96,0000.17,0000.63,-000.09,-000.17,0000.04,-000.02,0000.11,23.0,00.0,0649.0,30.9
2020-12-17T01:42:00Z,00000380,01000600,-000.24,0000.96,0000.05,0001.13,0000.32,-000.03,-000.04,-000.02,-000.01,22.9,00.0,0649.0,30.9
2020-12-17T01:43:00Z,00000380,01000600,0001.27,0000.93,0000.28,0000.25,0000.33,-000.06,0000.14,0000.03,-000.12,23.0,00.0,0649.0,30.9
2020-12-17T01:44:00Z,00000380,01000600,0001.09,0000.47,0000.48,0000.53,0000.02,0000.30,0000.04,0000.03,0000.23,23.0,00.0,0649.0,30.9
2020-12-17T01:45:00Z,00000380,01000600,0000.53,0000.71,0000.87,-000.58,-000.45,0000.32,0000.07,0000.08,0000.06,23.0,00.0,0649.0,30.9
2020-12-17T01:46:00Z,00000380,01000600,0000.78,0000.96,-000.35,-000.16,0000.04,0000.05,0000.12,0000.14,0000.02,22.9,00.0,0649.0,30.9
2020-12-17T01:47:00Z,00000380,01000600,0000.03,0000.56,0000.73,0000.49,-000.02,0000.06,0000.22,0000.15,0000.04,22.9,00.0,0648.9,30.9
2020-12-17T01:48:00Z,00000380,01000600,0000.49,0000.61,0000.23,0000.89,-000.05,0000.01,-000.01,-000.02,0000.07,22.9,00.0,0648.9,30.9
2020-12-17T01:49:00Z,00000380,01000600,0001.51,0001.06,0000.14,-000.06,-000.10,0000.11,0000.17,0000.14,0000.08,22.9,00.0,0649.0,30.9
2020-12-17T01:50:00Z,00000380,01000600,-000.09,0001.16,0000.46,0000.20,0000.01,0000.56,0000.20,0000.07,0000.17,22.8,00.0,0648.9,30.9
2020-12-17T01:51:00Z,00000380,01000600,0000.70,0001.03,0000.23,0000.44,0000.27,-000.07,0000.17,0000.16,0000.13,22.8,00.0,0649.0,30.9
2020-12-17T01:52:00Z,00000380,01000600,0001.11,0000.58,0000.52,-000.04,-000.31,0000.08,0000.16,0000.21,0000.13,22.9,00.0,0649.0,30.9
2020-12-17T01:53:00Z,00000380,01000600,0001.78,0000.84,0000.32,0001.14,0000.26,0000.04,0000.15,0000.10,-000.06,22.9,00.0,0649.0,30.9
2020-12-17T01:54:00Z,00000380,01000600,0000.83,0000.90,0000.34,0000.83,-000.25,0000.43,0000.19,0000.07,0000.24,22.9,00.0,0649.0,30.9
2020-12-17T01:55:00Z,00000380,01000600,0000.83,0000.81,0000.37,0000.34,0000.01,0000.37,-000.09,0000.16,0000.08,22.9,00.0,0649.0,30.9
2020-12-17T01:56:00Z,00000380,01000600,0001.65,0000.50,0000.59,0001.47,0000.07,-000.09,0000.10,-000.02,-000.13,22.9,00.0,0649.0,30.9
2020-12-17T01:57:00Z,00000380,41000600,,,,,,,,,,22.9,00.0,0649.0,30.9
2020-12-17T01:58:00Z,00000380,61000600,,,,,,,,,,23.1,00.0,0648.1,30.9
2020-12-17T01:59:00Z,00000380,21000600,,,,,,,,,,23.2,00.0,0648.0,30.9
2020-12-17T02:00:00Z,00000380,21000600,,,,,,,,,,23.2,00.0,0648.1,30.9
2020-12-17T02:01:00Z,00000380,21000600,,,,,,,,,,23.2,00.0,0648.0,30.9
2020-12-17T02:02:00Z,00000380,21000600,,,,,,,,,,23.2,00.0,0648.0,30.9
2020-12-17T02:03:00Z,00000380,61000600,,,,,,,,,,23.2,00.0,0648.0,30.9
2020-12-17T02:04:00Z,00000380,41000600,0001.63,0001.01,0000.25,-000.05,0000.44,0000.09,0000.29,0000.15,0000.15,22.9,00.0,0648.9,30.9
2020-12-17T02:05:00Z,00000380,01000600,0000.41,0001.35,0000.40,0000.62,0000.02,0000.49,0000.11,0000.30,0000.10,22.8,00.0,0648.9,30.8
2020-12-17T02:06:00Z,00000380,01000600,0000.44,0000.40,0000.11,0000.27,0000.59,0000.16,0000.13,0000.01,0000.01,22.8,00.0,0648.9,30.8
2020-12-17T02:07:00Z,00000380,01000600,0001.07,0000.81,0000.29,0000.56,0000.16,0000.28,0000.37,0000.22,0000.10,22.8,00.0,0648.9,30.9
2020-12-17T02:08:00Z,00000380,01000600,0000.41,0000.51,0000.31,-000.39,0000.39,-000.44,-000.00,0000.07,0000.20,22.9,00.0,0648.9,30.9
2020-12-17T02:09:00Z,00000380,01000600,0000.22,0000.66,0000.37,0000.28,-000.17,0000.55,0000.21,0000.16,0000.25,22.9,00.0,0648.9,30.9
2020-12-17T02:10:00Z,00000380,01000600,0000.58,0000.38,0000.09,0000.44,-000.05,0000.17,0000.12,0000.08,0000.05,23.0,00.0,0648.9,30.9
2020-12-17T02:11:00Z,00000380,01000600,0003.44,0001.18,0000.61,-000.18,-000.20,0000.25,0000.05,0000.07,0000.12,23.0,00.0,0648.9,30.9
2020-12-17T02:12:00Z,00000380,01000600,0001.75,0000.55,0000.04,-000.10,0000.11,-000.19,0000.16,0000.02,0000.08,23.0,00.0,0648.9,30.9
2020-12-17T02:13:00Z,00000380,01000600,0001.02,0000.60,0001.09,-000.45,0000.29,0000.18,-000.01,0000.17,-000.15,23.0,00.0,0648.9,30.9
2020-12-17T02:14:00Z,00000380,01000600,0001.45,0000.83,0000.34,0001.15,0000.03,0000.32,0000.04,-000.20,0000.10,23.0,00.0,0648.8,30.9
2020-12-17T02:15:00Z,00000380,01000600,0001.10,0000.52,-000.11,0000.63,0000.14,0000.15,-000.05,0000.18,0000.07,23.0,00.0,0648.8,30.9
2020-12-17T02:16:00Z,00000380,01000600,-000.19,0000.68,0000.20,0000.55,-000.14,0000.15,0000.11,0000.22,0000.06,23.0,00.0,0648.8,30.9
2020-12-17T02:17:00Z,00000380,01000600,0000.82,0000.69,0000.20,0000.52,-000.15,0000.31,0000.14,-000.06,-000.02,22.9,00.0,0648.8,30.9
2020-12-17T02:18:00Z,00000380,01000600,0000.90,0000.58,0000.31,0000.23,0000.14,0000.24,0000.27,0000.04,0000.11,22.9,00.0,0648.8,30.9
2020-12-17T02:19:00Z,00000380,01000600,0000.90,0000.69,0000.46,0000.26,0000.08,0000.06,0000.02,0000.36,0000.14,22.9,00.0,0648.8,30.9
2020-12-17T02:20:00Z,00000380,01000600,-000.05,0000.55,0000.05,-000.10,0000.77,0000.17,0000.28,0000.06,0000.05,22.9,00.0,0648.8,30.9
2020-12-17T02:21:00Z,00000380,01000600,0000.88,0000.35,0000.46,-000.53,0000.25,-000.10,0000.08,0000.22,0000.26,22.9,00.0,0648.8,30.9
2020-12-17T02:22:00Z,00000380,01000600,0001.70,0000.48,0001.05,0000.78,0000.19,0000.38,0000.15,-000.05,-000.06,22.9,00.0,0648.8,30.9
2020-12-17T02:23:00Z,00000380,01000600,0000.70,0000.66,0000.42,-000.04,-000.00,0000.26,0000.02,0000.13,0000.20,22.9,00.0,0648.8,30.9
2020-12-17T02:24:00Z,00000380,01000600,0001.57,0000.78,0000.46,0000.49,0000.22,0000.34,0000.27,0000.31,0000.12,23.0,00.0,0648.8,30.9
2020-12-17T02:25:00Z,00000380,01000600,0001.17,0001.04,0000.27,0001.03,0000.64,0000.05,0000.17,0000.07,0000.09,23.0,00.0,0648.8,30.9
2020-12-17T02:26:00Z,00000380,01000600,0001.28,0000.35,0000.16,0000.52,-000.15,0000.30,0000.12,0000.07,-000.02,23.0,00.0,0648.8,30.9
2020-12-17T02:27:00Z,00000380,01000600,-000.16,0000.49,0000.63,-000.62,0000.19,0000.45,-000.42,-000.13,-000.08,23.0,00.0,0648.8,30.9
2020-12-17T02:28:00Z,00000380,01000600,0000.97,0001.02,0000.42,0000.17,0000.44,0000.30,0000.31,0000.10,0000.24,23.0,00.0,0648.7,30.9
2020-12-17T02:29:00Z,00000380,01000600,0000.39,0000.88,0000.67,0000.00,0000.38,0000.30,0000.05,0000.03,-000.04,23.0,00.0,0648.7,30.9
2020-12-17T02:30:00Z,00000380,01000600,0001.48,0001.56,0000.33,0000.48,0000.21,-000.38,0000.12,0000.04,-000.04,23.0,00.0,0648.7,30.9
2020-12-17T02:31:00Z,00000380,01000600,0000.49,0000.28,0000.41,-000.08,0000.34,0000.42,0000.18,0000.20,0000.25,23.0,00.0,0648.7,30.9
2020-12-17T02:32:00Z,00000380,01000600,0001.48,0000.25,0000.26,-000.25,0000.00,0000.02,-000.06,0000.10,-000.11,23.0,00.0,0648.7,30.9
2020-12-17T02:33:00Z,00000380,01000600,0000.70,0001.59,0000.58,-000.06,0000.09,0000.34,0000.02,-000.05,0000.18,23.0,00.0,0648.7,30.9
2020-12-17T02:34:00Z,00000380,01000600,0002.33,0000.77,-000.17,0000.42,0000.07,-000.25,0000.27,0000.19,0000.14,22.9,00.0,0648.7,30.9
2020-12-17T02:35:00Z,00000380,01000600,0001.81,0000.35,-000.02,0000.43,0000.38,-000.04,0000.19,-000.04,-000.09,22.9,00.0,0648.7,30.9
2020-12-17T02:36:00Z,00000380,01000600,0000.73,0000.37,0000.36,-000.15,0000.32,0000.16,0000.10,0000.22,0000.21,22.9,00.0,0648.7,30.9
2020-12-17T02:37:00Z,00000380,01000600,0000.90,0000.86,0000.47,-000.37,0000.15,0000.34,0000.01,0000.06,-000.00,22.9,00.0,0648.7,30.9
2020-12-17T02:38:00Z,00000380,01000600,-000.73,0000.49,0000.90,-000.79,0000.12,0000.62,0000.24,0000.12,0000.11,23.0,00.0,0648.7,30.9
2020-12-17T02:39:00Z,00000380,01000600,0001.61,0001.20,0000.34,0000.13,0000.10,0000.12,-000.19,0000.17,0000.02,23.0,00.0,0648.7,30.9
2020-12-17T02:40:00Z,00000380,01000600,0001.38,0001.20,0000.14,-000.12,0000.15,-000.01,0000.33,0000.14,0000.12,23.0,00.0,0648.7,30.9
2020-12-17T02:41:00Z,00000380,01000600,0002.41,0000.43,0000.43,-000.44,-000.07,-000.10,0000.03,0000.06,0000.02,23.0,00.0,0648.7,30.9
2020-12-17T02:42:00Z,00000380,01000600,0001.49,0000.42,0000.20,0000.29,0000.27,0000.11,0000.02,-000.14,-000.14,23.0,00.0,0648.7,30.9
2020-12-17T02:43:00Z,00000380,01000600,0001.71,0000.68,0000.43,0000.49,0000.10,0000.23,-000.11,0000.04,0000.13,23.0,00.0,0648.7,30.9
2020-12-17T02:44:00Z,00000380,01000600,0000.61,0000.39,0000.23,0000.18,0000.25,0000.24,0000.14,0000.10,0000.15,23.0,00.0,0648.6,30.9
2020-12-17T02:45:00Z,00000380,01000600,0001.22,0000.25,0000.59,-000.47,0000.22,0000.54,0000.14,0000.18,0000.11,23.0,00.0,0648.6,30.9
2020-12-17T02:46:00Z,00000380,01000600,0001.17,0000.46,0000.23,0001.02,0000.02,0000.18,0000.14,0000.03,0000.08,23.0,00.0,0648.6,30.9
2020-12-17T02:47:00Z,00000380,01000600,0001.73,0000.58,0000.60,-000.16,0000.18,-000.08,-000.04,0000.11,0000.01,23.0,00.0,0648.6,30.9
2020-12-17T02:48:00Z,00000380,01000600,0001.34,0000.70,0000.49,-000.32,0000.22,-000.03,0000.10,0000.12,0000.00,23.0,00.0,0648.6,30.9
2020-12-17T02:49:00Z,00000380,01000600,0000.48,0000.94,0000.34,0000.16,0000.10,-000.16,0000.17,-000.03,0000.11,23.0,00.0,0648.6,30.9
2020-12-17T02:50:00Z,00000380,01000600,0001.31,0000.29,0000.11,0000.23,0000.46,-000.12,0000.14,0000.30,0000.05,22.9,00.0,0648.6,30.9
2020-12-17T02:51:00Z,00000380,01000600,0001.60,0000.50,0000.31,0000.45,0000.26,-000.08,0000.23,-000.05,0000.17,22.9,00.0,0648.6,30.9
2020-12-17T02:52:00Z,00000380,01000600,0000.56,0000.74,0000.58,0001.08,0000.40,0000.70,-000.06,0000.29,0000.02,22.9,00.0,0648.6,30.9
2020-12-17T02:53:00Z,00000380,01000600,0001.28,0000.77,0000.10,0000.78,0000.41,0000.48,0000.35,0000.05,0000.04,23.0,00.0,0648.6,30.9
2020-12-17T02:54:00Z,00000380,01000600,0001.39,0000.35,-000.05,0000.08,0000.22,0000.19,-000.01,-000.04,0000.17,23.0,00.0,0648.6,30.9
2020-12-17T02:55:00Z,00000380,01000600,0001.19,0000.67,0000.37,-000.08,0000.52,0000.20,-000.01,0000.13,0000.20,23.1,00.0,0648.6,30.9
2020-12-17T02:56:00Z,00000380,01000600,0001.49,0000.31,0000.64,0000.64,-000.21,0000.21,0000.20,0000.20,-000.04,23.1,00.0,0648.6,30.9
2020-12-17T02:57:00Z,00000380,41000600,,,,,,,,,,23.1,00.0,0648.7,30.9
2020-12-17T02:58:00Z,00000380,61000600,,,,,,,,,,23.3,00.0,0647.6,30.9
2020-12-17T02:59:00Z,00000380,21000600,,,,,,,,,,23.4,00.0,0647.6,30.9
2020-12-17T03:00:00Z,00000380,21000600,,,,,,,,,,23.4,00.0,0647.6,30.9
2020-12-17T03:01:00Z,00000380,21000600,,,,,,,,,,23.4,00.0,0647.6,30.9
2020-12-17T03:02:00Z,00000380,21000600,,,,,,,,,,23.4,00.0,0647.6,30.9
2020-12-17T03:03:00Z,00000380,61000600,,,,,,,,,,23.4,00.0,0647.6,30.9
2020-12-17T03:04:00Z,00000380,41000600,0001.40,0001.33,0000.44,-000.35,0000.23,0000.28,0000.20,0000.04,0000.21,23.2,00.0,0648.5,30.9
2020-12-17T03:05:00Z,00000380,01000600,0000.87,0000.58,0000.55,0000.14,0000.35,0000.19,0000.22,0000.25,0000.20,23.1,00.0,0648.5,30.9
2020-12-17T03:06:00Z,00000380,01000600,0001.27,0000.78,-000.21,-000.35,0000.17,-000.22,0000.03,0000.17,0000.02,23.1,00.0,0648.5,30.9
2020-12-17T03:07:00Z,00000380,01000600,0001.43,0000.27,0000.33,0000.75,0000.24,0000.06,0000.23,0000.17,0000.09,23.1,00.0,0648.5,30.9
2020-12-17T03:08:00Z,00000380,01000600,0001.04,0000.60,0000.65,0000.89,0000.08,-000.22,0000.04,-000.00,0000.09,23.1,00.0,0648.5,30.9
2020-12-17T03:09:00Z,00000380,01000600,0000.84,0000.65,0000.72,0000.17,0000.04,0000.40,0000.13,0000.39,0000.14,23.1,00.0,0648.5,30.9
2020-12-17T03:10:00Z,00000380,01000600,0001.40,0000.60,0000.83,-000.11,-000.22,0000.14,0000.17,-000.25,0000.03,23.1,00.0,0648.5,30.9